Regional Weather Roundup
Issued by NWS

Home | Current Version | Previous Version | Text Only | Print | Product List | Glossary On
Versions: 1 2 3 4 5 6 7 8 9 10 11 12 13 14 15 16 17 18 19 20 21 22 23 24 25 26 27
000
ASUS44 KBMX 031110
RWRAL

ALABAMA REGIONAL WEATHER ROUNDUP
NATIONAL WEATHER SERVICE BIRMINGHAM AL
600 AM CDT TUE AUG 03 2021

NOTE: "FAIR" INDICATES FEW OR NO CLOUDS BELOW 12,000 FEET
WITH NO SIGNIFICANT WEATHER AND/OR OBSTRUCTIONS TO VISIBILITY.

THE REMARK "TC" DENOTES TEMPERATURE IN DEGREES CELSIUS.

ALZ001>011-014-016>018-020-031200-
NORTH ALABAMA

CITY           SKY/WX    TMP DP  RH WIND       PRES   REMARKS
MUSCLE SHOALS  NOT AVBL
HUNTSVILLE     CLEAR     65  62  90 CALM      29.99S
DECATUR        CLEAR     63  61  93 N3        30.00S
HALEYVILLE     FAIR      64  63  96 CALM      30.03S FOG
GADSDEN        CLEAR     68  68 100 W3        29.98S FOG
$$

ALZ012-013-022-023-030>036-040>044-031200-
WEST CENTRAL ALABAMA

CITY           SKY/WX    TMP DP  RH WIND       PRES   REMARKS
TUSCALOOSA     CLEAR     70  68  93 CALM      29.97S
DEMOPOLIS      FAIR     N/A N/A N/A MISG      29.97R
$$

ALZ015-024>026-033>036-041>044-031200-
CENTRAL ALABAMA

CITY           SKY/WX    TMP DP  RH WIND       PRES   REMARKS
BIRMINGHAM     FOG       70  67  90 NE3       30.00R VSB 1
MONTGOMERY     PTCLDY    71  68  90 CALM      29.96S
SHELBY CO ARPT CLOUDY    71  70  96 CALM      29.97S FOG
MAXWELL AFB    PTCLDY    69  69  98 CALM      29.94R FOG
GREENVILLE     LGT RAIN  71  66  84 N3        29.95S
SELMA          CLOUDY    70  70 100 CALM      29.96R FOG
PRATTVILLE     FAIR      68  68 100 CALM      29.95S FOG
BESSEMER       FOG       69  69 100 CALM      29.99R VSB 1/4
TALLADEGA      FOG       71  70  99 CALM      29.98S VSB 1/4
PELL CITY      FOG       68  68 100 CALM      29.98S VSB 3/4
SYLACAUGA      FOG       70  70 100 CALM      29.98S VSB 1/4
$$

ALZ019-021-028-029-037-038-045>048-031200-
EAST CENTRAL ALABAMA

CITY           SKY/WX    TMP DP  RH WIND       PRES   REMARKS
ANNISTON       MOCLDY    72  70  93 CALM      29.98R FOG
ALEXANDER CITY CLEAR     70  70  99 CALM      29.98R FOG
AUBURN         CLOUDY    70  69  97 CALM      29.99R
$$

ALZ051>064-031200-
SOUTHWEST ALABAMA

CITY           SKY/WX    TMP DP  RH WIND       PRES   REMARKS
MOBILE         CLOUDY    73  72  96 N5        29.95R
BROOKLEY FIELD CLOUDY    76  74  93 N7        29.95R
EVERGREEN      CLOUDY    74  71  91 VRB3      29.96R
$$

ALZ049-050-065>069-031200-
SOUTHEAST ALABAMA

CITY           SKY/WX    TMP DP  RH WIND       PRES   REMARKS
DOTHAN         CLOUDY    73  72  96 N7        29.97S
OZARK          CLOUDY    72  72  99 NW6       29.93S
TROY           CLOUDY    72  66  81 CALM      29.96S
EUFAULA        CLOUDY    73  70  90 CALM      29.96R FOG
$$



USA.gov is the U.S. government's official web portal to all federal, state and local government web resources and services.